Regional Weather Roundup
Issued by NWS Midland/Odessa, TX

Skip options and go directly to product.
Home | Oldest Version | Previous Version | Current Version | All | Text Only | Save Text | Print | Product List | Glossary On

Skip product version selection by date and time.   
871
ASUS44 KMAF 301510
RWRMAF
MIDLAND AREA WEATHER ROUNDUP
NATIONAL WEATHER SERVICE MIDLAND TX
1000 AM CDT THU JUN 30 2016

...IN SOUTHWEST TEXAS AND SOUTHEAST NEW MEXICO...

CITY           SKY/WX    TMP DP  RH WIND       PRES   REMARKS
ALPINE         MOSUNNY   77  59  54 CALM      30.25R
ANDREWS        FAIR      80  63  54 S8        30.14S
ARTESIA        SUNNY     82  59  44 SE7       30.13S
BIG SPRING     SUNNY     78  61  55 S8        30.14R
CARLSBAD       SUNNY     81  60  48 S7        30.11R
DRYDEN           N/A     83  66  56 E8        30.06R
FORT STOCKTON  SUNNY     82  64  54 SE8       30.11R
GUAD PASS      CLOUDY    73  56  54 SW3       30.27R
HOBBS          SUNNY     81  57  44 SE10      30.17R
MARFA          SUNNY    N/A N/A N/A CALM      30.23S
MIDLAND AIRPK  SUNNY     82  64  53 S8        30.13R
MIDLAND INTL   SUNNY     81  63  54 S9        30.12R
ODESSA         SUNNY     81  63  54 S10       30.13R
PECOS          SUNNY     81  61  51 CALM      30.09S
PRESIDIO       FAIR      84  60  45 E13       30.09R
SEMINOLE       SUNNY     81  61  51 SE5       30.16S
SNYDER           N/A     79  64  60 CALM      30.13R
WINK           SUNNY     80  65  59 SE7       30.09S
$$
...OTHER STATIONS IN TEXAS...

CITY           SKY/WX    TMP DP  RH WIND       PRES   REMARKS
ABILENE        SUNNY     82  69  64 S9        30.09S
AMARILLO       CLOUDY    73  61  65 S13       30.13R
AUSTIN         MOSUNNY   86  74  67 NE7       30.01R
BROWNSVILLE    SUNNY     88  74  63 S10       29.96R
CORPUS CHRISTI PTSUNNY   86  76  71 W7        29.97S
DALLAS FTW     MOSUNNY   88  68  51 S6        30.03S
DEL RIO        SUNNY     84  72  67 SE7       30.01R
EL PASO        CLOUDY    81  56  42 S5        30.13R
HOUSTON INT    MOSUNNY   85  72  65 NE8       29.98R
LUBBOCK        PTSUNNY   78  61  55 SE6       30.16F
SAN ANGELO     SUNNY     80  67  64 S3        30.09R
SAN ANTONIO    MOSUNNY   86  72  62 CALM      30.02R
WACO           SUNNY     87  71  58 VRB5      30.04R
WICHITA FALLS  NOT AVBL
$$
...OTHER LOCATIONS IN NEW MEXICO...

CITY           SKY/WX    TMP DP  RH WIND       PRES   REMARKS
ALAMAGORDO     SUNNY     82  54  36 SE6       30.17S
ALBUQUERQUE    CLOUDY    71  54  54 W7        30.27R
CANNON AFB     SUNNY     78  60  53 S8        30.20S
CLOVIS         MOSUNNY   77  59  53 SE10G16   30.20S
HOLLOMAN AFB   SUNNY     83  55  38 S8        30.15R
ROSWELL        SUNNY     83  53  35 SE6       30.13R
RUIDOSO          N/A     72  48  43 CALM      30.37R
SANTA FE       CLOUDY    69  49  48 VRB5      30.32R
TRUTH OR CONSE SUNNY     79  53  40 SE5       30.19R
TUCUMCARI      CLOUDY    76  59  55 SE8       30.15S
$$

USA.gov is the U.S. government's official web portal to all federal, state and local government web resources and services.